Year,Month,Day,Hour,Minute,Value (Times are PST for temperature in C)
2017,07,11,00,00,12.50
2017,07,11,00,01,12.50
2017,07,11,00,02,12.50
2017,07,11,00,03,12.50
2017,07,11,00,04,12.40
2017,07,11,00,05,12.40
2017,07,11,00,06,12.40
2017,07,11,00,07,12.40
2017,07,11,00,08,12.40
2017,07,11,00,09,12.40
2017,07,11,00,10,12.40
2017,07,11,00,11,12.40
2017,07,11,00,12,12.40
2017,07,11,00,13,12.40
2017,07,11,00,14,12.40
2017,07,11,00,15,12.40
2017,07,11,00,16,12.40
2017,07,11,00,17,12.40
2017,07,11,00,18,12.40
2017,07,11,00,19,12.30
2017,07,11,00,20,12.30
2017,07,11,00,21,12.30
2017,07,11,00,22,12.30
2017,07,11,00,23,12.30
2017,07,11,00,24,12.30
2017,07,11,00,25,12.30
2017,07,11,00,26,12.30
2017,07,11,00,27,12.20
2017,07,11,00,28,12.20
2017,07,11,00,29,12.20
2017,07,11,00,30,12.20
2017,07,11,00,31,12.20
2017,07,11,00,32,12.10
2017,07,11,00,33,12.10
2017,07,11,00,34,12.10
2017,07,11,00,35,12.10
2017,07,11,00,36,12.10
2017,07,11,00,37,12.10
2017,07,11,00,38,12.10
2017,07,11,00,39,12.10
2017,07,11,00,40,12.10
2017,07,11,00,41,12.10
2017,07,11,00,42,12.10
2017,07,11,00,43,12.10
2017,07,11,00,44,12.10
2017,07,11,00,45,12.00
2017,07,11,00,46,12.00
2017,07,11,00,47,12.00
2017,07,11,00,48,12.00
2017,07,11,00,49,11.90
2017,07,11,00,50,11.90
2017,07,11,00,51,11.90
2017,07,11,00,52,11.90
2017,07,11,00,53,11.90
2017,07,11,00,54,11.90
2017,07,11,00,55,11.90
2017,07,11,00,56,11.90
2017,07,11,00,57,11.90
2017,07,11,00,58,12.00
2017,07,11,00,59,12.00
2017,07,11,01,00,12.00
2017,07,11,01,01,12.00
2017,07,11,01,02,12.00
2017,07,11,01,03,12.00
2017,07,11,01,04,12.00
2017,07,11,01,05,12.00
2017,07,11,01,06,12.00
2017,07,11,01,07,12.00
2017,07,11,01,08,12.00
2017,07,11,01,09,12.00
2017,07,11,01,10,12.00
2017,07,11,01,11,12.00
2017,07,11,01,12,12.00
2017,07,11,01,13,12.00
2017,07,11,01,14,11.90
2017,07,11,01,15,11.90
2017,07,11,01,16,11.90
2017,07,11,01,17,11.90
2017,07,11,01,18,11.90
2017,07,11,01,19,11.90
2017,07,11,01,20,11.90
2017,07,11,01,21,11.90
2017,07,11,01,22,11.90
2017,07,11,01,23,11.90
2017,07,11,01,24,11.90
2017,07,11,01,25,11.90
2017,07,11,01,26,11.90
2017,07,11,01,27,11.90
2017,07,11,01,28,11.90
2017,07,11,01,29,11.90
2017,07,11,01,30,11.90
2017,07,11,01,31,11.90
2017,07,11,01,32,11.90
2017,07,11,01,33,11.90
2017,07,11,01,34,11.90
2017,07,11,01,35,11.80
2017,07,11,01,36,11.80
2017,07,11,01,37,11.80
2017,07,11,01,38,11.80
2017,07,11,01,39,11.80
2017,07,11,01,40,11.80
2017,07,11,01,41,11.80
2017,07,11,01,42,11.80
2017,07,11,01,43,11.80
2017,07,11,01,44,11.80
2017,07,11,01,45,11.80
2017,07,11,01,46,11.80
2017,07,11,01,47,11.70
2017,07,11,01,48,11.70
2017,07,11,01,49,11.70
2017,07,11,01,50,11.70
2017,07,11,01,51,11.70
2017,07,11,01,52,11.70
2017,07,11,01,53,11.70
2017,07,11,01,54,11.70
2017,07,11,01,55,11.70
2017,07,11,01,56,11.70
2017,07,11,01,57,11.70
2017,07,11,01,58,11.70
2017,07,11,01,59,11.70
2017,07,11,02,00,11.70
2017,07,11,02,01,11.70
2017,07,11,02,02,11.70
2017,07,11,02,03,11.60
2017,07,11,02,04,11.60
2017,07,11,02,05,11.60
2017,07,11,02,06,11.60
2017,07,11,02,07,11.60
2017,07,11,02,08,11.60
2017,07,11,02,09,11.60
2017,07,11,02,10,11.50
2017,07,11,02,11,11.50
2017,07,11,02,12,11.50
2017,07,11,02,13,11.40
2017,07,11,02,14,11.40
2017,07,11,02,15,11.40
2017,07,11,02,16,11.40
2017,07,11,02,17,11.40
2017,07,11,02,18,11.30
2017,07,11,02,19,11.30
2017,07,11,02,20,11.30
2017,07,11,02,21,11.30
2017,07,11,02,22,11.30
2017,07,11,02,23,11.30
2017,07,11,02,24,11.30
2017,07,11,02,25,11.30
2017,07,11,02,26,11.30
2017,07,11,02,27,11.30
2017,07,11,02,28,11.30
2017,07,11,02,29,11.30
2017,07,11,02,30,11.30
2017,07,11,02,31,11.30
2017,07,11,02,32,11.30
2017,07,11,02,33,11.30
2017,07,11,02,34,11.30
2017,07,11,02,35,11.30
2017,07,11,02,36,11.30
2017,07,11,02,37,11.30
2017,07,11,02,38,11.30
2017,07,11,02,39,11.30
2017,07,11,02,40,11.20
2017,07,11,02,41,11.20
2017,07,11,02,42,11.20
2017,07,11,02,43,11.20
2017,07,11,02,44,11.20
2017,07,11,02,45,11.20
2017,07,11,02,46,11.20
2017,07,11,02,47,11.20
2017,07,11,02,48,11.20
2017,07,11,02,49,11.20
2017,07,11,02,50,11.20
2017,07,11,02,51,11.20
2017,07,11,02,52,11.20
2017,07,11,02,53,11.20
2017,07,11,02,54,11.20
2017,07,11,02,55,11.20
2017,07,11,02,56,11.20
2017,07,11,02,57,11.20
2017,07,11,02,58,11.20
2017,07,11,02,59,11.20
2017,07,11,03,00,11.20
2017,07,11,03,01,11.10
2017,07,11,03,02,11.10
2017,07,11,03,03,11.10
2017,07,11,03,04,11.10
2017,07,11,03,05,11.10
2017,07,11,03,06,11.10
2017,07,11,03,07,11.10
2017,07,11,03,08,11.10
2017,07,11,03,09,11.10
2017,07,11,03,10,11.10
2017,07,11,03,11,11.10
2017,07,11,03,12,11.10
2017,07,11,03,13,11.10
2017,07,11,03,14,11.10
2017,07,11,03,15,11.00
2017,07,11,03,16,11.00
2017,07,11,03,17,11.00
2017,07,11,03,18,11.00
2017,07,11,03,19,10.90
2017,07,11,03,20,10.90
2017,07,11,03,21,10.90
2017,07,11,03,22,10.80
2017,07,11,03,23,10.80
2017,07,11,03,24,10.80
2017,07,11,03,25,10.80
2017,07,11,03,26,10.80
2017,07,11,03,27,10.80
2017,07,11,03,28,10.80
2017,07,11,03,29,10.80
2017,07,11,03,30,10.80
2017,07,11,03,31,10.80
2017,07,11,03,32,10.80
2017,07,11,03,33,10.70
2017,07,11,03,34,10.70
2017,07,11,03,35,10.70
2017,07,11,03,36,10.70
2017,07,11,03,37,10.70
2017,07,11,03,38,10.70
2017,07,11,03,39,10.70
2017,07,11,03,40,10.70
2017,07,11,03,41,10.70
2017,07,11,03,42,10.70
2017,07,11,03,43,10.70
2017,07,11,03,44,10.70
2017,07,11,03,45,10.70
2017,07,11,03,46,10.60
2017,07,11,03,47,10.60
2017,07,11,03,48,10.60
2017,07,11,03,49,10.60
2017,07,11,03,50,10.60
2017,07,11,03,51,10.60
2017,07,11,03,52,10.60
2017,07,11,03,53,10.60
2017,07,11,03,54,10.60
2017,07,11,03,55,10.60
2017,07,11,03,56,10.60
2017,07,11,03,57,10.60
2017,07,11,03,58,10.50
2017,07,11,03,59,10.50
2017,07,11,04,00,10.50
2017,07,11,04,01,10.40
2017,07,11,04,02,10.40
2017,07,11,04,03,10.40
2017,07,11,04,04,10.40
2017,07,11,04,08,10.40
2017,07,11,04,09,10.40
2017,07,11,04,10,10.50
2017,07,11,04,11,10.50
2017,07,11,04,12,10.50
2017,07,11,04,13,10.50
2017,07,11,04,14,10.50
2017,07,11,04,15,10.50
2017,07,11,04,16,10.40
2017,07,11,04,17,10.40
2017,07,11,04,18,10.40
2017,07,11,04,19,10.40
2017,07,11,04,20,10.40
2017,07,11,04,21,10.40
2017,07,11,04,22,10.40
2017,07,11,04,23,10.40
2017,07,11,04,24,10.40
2017,07,11,04,25,10.30
2017,07,11,04,26,10.30
2017,07,11,04,27,10.30
2017,07,11,04,28,10.30
2017,07,11,04,29,10.30
2017,07,11,04,30,10.30
2017,07,11,04,31,10.30
2017,07,11,04,32,10.30
2017,07,11,04,33,10.30
2017,07,11,04,34,10.30
2017,07,11,04,35,10.30
2017,07,11,04,36,10.30
2017,07,11,04,37,10.30
2017,07,11,04,38,10.20
2017,07,11,04,39,10.20
2017,07,11,04,40,10.20
2017,07,11,04,41,10.20
2017,07,11,04,42,10.20
2017,07,11,04,43,10.20
2017,07,11,04,44,10.20
2017,07,11,04,45,10.20
2017,07,11,04,46,10.20
2017,07,11,04,47,10.20
2017,07,11,04,48,10.20
2017,07,11,04,49,10.10
2017,07,11,04,50,10.10
2017,07,11,04,51,10.10
2017,07,11,04,52,10.10
2017,07,11,04,53,10.10
2017,07,11,04,54,10.10
2017,07,11,04,55,10.10
2017,07,11,04,56,10.10
2017,07,11,04,57,10.10
2017,07,11,04,58,10.10
2017,07,11,04,59,10.10
2017,07,11,05,00,10.10
2017,07,11,05,01,10.10
2017,07,11,05,02,10.10
2017,07,11,05,03,10.10
2017,07,11,05,04,10.10
2017,07,11,05,05,10.10
2017,07,11,05,06,10.20
2017,07,11,05,07,10.20
2017,07,11,05,08,10.20
2017,07,11,05,09,10.20
2017,07,11,05,10,10.20
2017,07,11,05,11,10.20
2017,07,11,05,12,10.20
2017,07,11,05,13,10.20
2017,07,11,05,14,10.20
2017,07,11,05,15,10.20
2017,07,11,05,16,10.20
2017,07,11,05,17,10.20
2017,07,11,05,18,10.20
2017,07,11,05,19,10.20
2017,07,11,05,20,10.20
2017,07,11,05,21,10.20
2017,07,11,05,22,10.20
2017,07,11,05,23,10.20
2017,07,11,05,24,10.20
2017,07,11,05,25,10.10
2017,07,11,05,26,10.10
2017,07,11,05,27,10.20
2017,07,11,05,28,10.10
2017,07,11,05,29,10.20
2017,07,11,05,30,10.20
2017,07,11,05,31,10.20
2017,07,11,05,32,10.20
2017,07,11,05,33,10.20
2017,07,11,05,34,10.20
2017,07,11,05,35,10.20
2017,07,11,05,36,10.20
2017,07,11,05,37,10.20
2017,07,11,05,38,10.20
2017,07,11,05,39,10.20
2017,07,11,05,40,10.20
2017,07,11,05,41,10.20
2017,07,11,05,42,10.20
2017,07,11,05,43,10.20
2017,07,11,05,44,10.20
2017,07,11,05,45,10.20
2017,07,11,05,46,10.20
2017,07,11,05,47,10.20
2017,07,11,05,48,10.10
2017,07,11,05,49,10.10
2017,07,11,05,50,10.10
2017,07,11,05,51,10.10
2017,07,11,05,52,10.10
2017,07,11,05,53,10.10
2017,07,11,05,54,10.10
2017,07,11,05,55,10.10
2017,07,11,05,56,10.10
2017,07,11,05,57,10.10
2017,07,11,05,58,10.10
2017,07,11,05,59,10.10
2017,07,11,06,00,10.10
2017,07,11,06,01,10.10
2017,07,11,06,02,10.20
2017,07,11,06,03,10.20
2017,07,11,06,04,10.20
2017,07,11,06,05,10.20
2017,07,11,06,06,10.20
2017,07,11,06,07,10.30
2017,07,11,06,08,10.30
2017,07,11,06,09,10.30
2017,07,11,06,10,10.30
2017,07,11,06,11,10.30
2017,07,11,06,12,10.30
2017,07,11,06,13,10.30
2017,07,11,06,14,10.30
2017,07,11,06,15,10.30
2017,07,11,06,16,10.30
2017,07,11,06,17,10.30
2017,07,11,06,18,10.30
2017,07,11,06,19,10.40
2017,07,11,06,20,10.40
2017,07,11,06,21,10.40
2017,07,11,06,22,10.50
2017,07,11,06,23,10.50
2017,07,11,06,24,10.60
2017,07,11,06,25,10.60
2017,07,11,06,26,10.70
2017,07,11,06,27,10.70
2017,07,11,06,28,10.80
2017,07,11,06,29,10.80
2017,07,11,06,30,10.80
2017,07,11,06,31,10.90
2017,07,11,06,32,10.90
2017,07,11,06,33,11.00
2017,07,11,06,34,11.00
2017,07,11,06,35,11.10
2017,07,11,06,36,11.10
2017,07,11,06,37,11.20
2017,07,11,06,38,11.20
2017,07,11,06,39,11.20
2017,07,11,06,40,11.30
2017,07,11,06,41,11.30
2017,07,11,06,42,11.30
2017,07,11,06,43,11.40
2017,07,11,06,44,11.40
2017,07,11,06,45,11.50
2017,07,11,06,46,11.50
2017,07,11,06,47,11.60
2017,07,11,06,48,11.70
2017,07,11,06,49,11.70
2017,07,11,06,50,11.80
2017,07,11,06,51,11.80
2017,07,11,06,52,11.90
2017,07,11,06,53,12.00
2017,07,11,06,54,12.10
2017,07,11,06,55,12.10
2017,07,11,06,56,12.20
2017,07,11,06,57,12.20
2017,07,11,06,58,12.30
2017,07,11,06,59,12.40
2017,07,11,07,00,12.50
2017,07,11,07,01,12.50
2017,07,11,07,02,12.60
2017,07,11,07,03,12.70
2017,07,11,07,04,12.80
2017,07,11,07,05,12.90
2017,07,11,07,06,12.90
2017,07,11,07,07,13.00
2017,07,11,07,08,13.10
2017,07,11,07,09,13.20
2017,07,11,07,10,13.20
2017,07,11,07,11,13.30
2017,07,11,07,12,13.40
2017,07,11,07,13,13.40
2017,07,11,07,14,13.50
2017,07,11,07,15,13.60
2017,07,11,07,16,13.70
2017,07,11,07,17,13.80
2017,07,11,07,18,13.80
2017,07,11,07,19,13.90
2017,07,11,07,20,14.00
2017,07,11,07,21,14.10
2017,07,11,07,22,14.10
2017,07,11,07,23,14.20
2017,07,11,07,24,14.20
2017,07,11,07,25,14.30
2017,07,11,07,26,14.30
2017,07,11,07,27,14.40
2017,07,11,07,28,14.40
2017,07,11,07,29,14.50
2017,07,11,07,30,14.50
2017,07,11,07,31,14.60
2017,07,11,07,32,14.60
2017,07,11,07,33,14.70
2017,07,11,07,34,14.70
2017,07,11,07,35,14.80
2017,07,11,07,36,14.80
2017,07,11,07,37,14.90
2017,07,11,07,38,15.00
2017,07,11,07,39,15.00
2017,07,11,07,40,15.10
2017,07,11,07,41,15.20
2017,07,11,07,42,15.20
2017,07,11,07,43,15.30
2017,07,11,07,44,15.40
2017,07,11,07,45,15.40
2017,07,11,07,46,15.50
2017,07,11,07,47,15.60
2017,07,11,07,48,15.60
2017,07,11,07,49,15.70
2017,07,11,07,50,15.70
2017,07,11,07,51,15.80
2017,07,11,07,52,15.80
2017,07,11,07,53,15.90
2017,07,11,07,54,15.90
2017,07,11,07,55,16.00
2017,07,11,07,56,16.10
2017,07,11,07,57,16.10
2017,07,11,07,58,16.20
2017,07,11,07,59,16.20
2017,07,11,08,00,16.30
2017,07,11,08,01,16.30
2017,07,11,08,02,16.40
2017,07,11,08,03,16.40
2017,07,11,08,04,16.50
2017,07,11,08,05,16.50
2017,07,11,08,06,16.60
2017,07,11,08,07,16.60
2017,07,11,08,08,16.70
2017,07,11,08,09,16.70
2017,07,11,08,10,16.70
2017,07,11,08,11,16.70
2017,07,11,08,12,16.80
2017,07,11,08,13,16.80
2017,07,11,08,14,16.80
2017,07,11,08,15,16.90
2017,07,11,08,16,16.90
2017,07,11,08,17,16.90
2017,07,11,08,18,17.00
2017,07,11,08,19,17.00
2017,07,11,08,20,17.00
2017,07,11,08,21,17.10
2017,07,11,08,22,17.20
2017,07,11,08,23,17.20
2017,07,11,08,24,17.20
2017,07,11,08,25,17.20
2017,07,11,08,26,17.20
2017,07,11,08,27,17.20
2017,07,11,08,28,17.20
2017,07,11,08,29,17.10
2017,07,11,08,30,17.10
2017,07,11,08,31,17.10
2017,07,11,08,32,17.00
2017,07,11,08,33,17.00
2017,07,11,08,34,16.90
2017,07,11,08,35,16.90
2017,07,11,08,36,16.90
2017,07,11,08,37,17.00
2017,07,11,08,38,17.00
2017,07,11,08,39,17.10
2017,07,11,08,40,17.10
2017,07,11,08,41,17.10
2017,07,11,08,42,17.10
2017,07,11,08,43,17.00
2017,07,11,08,44,17.00
2017,07,11,08,45,17.00
2017,07,11,08,46,17.00
2017,07,11,08,47,16.90
2017,07,11,08,48,16.90
2017,07,11,08,49,16.90
2017,07,11,08,50,17.00
2017,07,11,08,51,17.00
2017,07,11,08,52,17.10
2017,07,11,08,53,17.10
2017,07,11,08,54,17.10
2017,07,11,08,55,17.10
2017,07,11,08,56,17.10
2017,07,11,08,57,17.00
2017,07,11,08,58,17.00
2017,07,11,08,59,17.00
2017,07,11,09,00,17.00
2017,07,11,09,01,17.00
2017,07,11,09,02,17.10
2017,07,11,09,03,17.20
2017,07,11,09,04,17.20
2017,07,11,09,05,17.30
2017,07,11,09,06,17.40
2017,07,11,09,07,17.50
2017,07,11,09,08,17.60
2017,07,11,09,09,17.70
2017,07,11,09,10,17.70
2017,07,11,09,11,17.80
2017,07,11,09,12,17.90
2017,07,11,09,13,17.90
2017,07,11,09,14,17.90
2017,07,11,09,15,17.90
2017,07,11,09,16,18.00
2017,07,11,09,17,18.00
2017,07,11,09,18,18.00
2017,07,11,09,19,18.10
2017,07,11,09,20,18.10
2017,07,11,09,21,18.20
2017,07,11,09,22,18.20
2017,07,11,09,23,18.20
2017,07,11,09,24,18.20
2017,07,11,09,25,18.10
2017,07,11,09,26,18.00
2017,07,11,09,27,17.80
2017,07,11,09,28,17.60
2017,07,11,09,29,17.50
2017,07,11,09,30,17.30
2017,07,11,09,31,17.20
2017,07,11,09,32,17.20
2017,07,11,09,33,17.10
2017,07,11,09,34,17.10
2017,07,11,09,35,17.10
2017,07,11,09,36,17.10
2017,07,11,09,37,17.10
2017,07,11,09,38,17.10
2017,07,11,09,39,17.20
2017,07,11,09,40,17.20
2017,07,11,09,41,17.20
2017,07,11,09,42,17.20
2017,07,11,09,43,17.20
2017,07,11,09,44,17.20
2017,07,11,09,45,17.30
2017,07,11,09,46,17.40
2017,07,11,09,47,17.50
2017,07,11,09,48,17.50
2017,07,11,09,49,17.50
2017,07,11,09,50,17.50
2017,07,11,09,51,17.50
2017,07,11,09,52,17.50
2017,07,11,09,53,17.50
2017,07,11,09,54,17.50
2017,07,11,09,55,17.50
2017,07,11,09,56,17.50
2017,07,11,09,57,17.40
2017,07,11,09,58,17.30
2017,07,11,09,59,17.20
2017,07,11,10,00,17.10
2017,07,11,10,01,16.90
2017,07,11,10,02,16.80
2017,07,11,10,03,16.60
2017,07,11,10,04,16.50
2017,07,11,10,05,16.40
2017,07,11,10,06,16.30
2017,07,11,10,07,16.20
2017,07,11,10,08,16.10
2017,07,11,10,09,16.00
2017,07,11,10,10,16.00
2017,07,11,10,11,15.90
2017,07,11,10,12,15.90
2017,07,11,10,13,15.90
2017,07,11,10,14,15.90
2017,07,11,10,15,16.00
2017,07,11,10,16,16.00
2017,07,11,10,17,16.10
2017,07,11,10,18,16.10
2017,07,11,10,19,16.20
2017,07,11,10,20,16.20
2017,07,11,10,21,16.20
2017,07,11,10,22,16.20
2017,07,11,10,23,16.20
2017,07,11,10,24,16.20
2017,07,11,10,25,16.20
2017,07,11,10,26,16.20
2017,07,11,10,27,16.20
2017,07,11,10,28,16.10
2017,07,11,10,29,16.20
2017,07,11,10,30,16.10
2017,07,11,10,31,16.10
2017,07,11,10,32,16.20
2017,07,11,10,33,16.20
2017,07,11,10,34,16.20
2017,07,11,10,35,16.30
2017,07,11,10,36,16.30
2017,07,11,10,37,16.30
2017,07,11,10,38,16.30
2017,07,11,10,39,16.30
2017,07,11,10,40,16.30
2017,07,11,10,41,16.40
2017,07,11,10,42,16.40
2017,07,11,10,43,16.50
2017,07,11,10,44,16.60
2017,07,11,10,45,16.70
2017,07,11,10,46,16.70
2017,07,11,10,47,16.70
2017,07,11,10,48,16.70
2017,07,11,10,49,16.70
2017,07,11,10,50,16.70
2017,07,11,10,51,16.70
2017,07,11,10,52,16.70
2017,07,11,10,53,16.70
2017,07,11,10,54,16.70
2017,07,11,10,55,16.70
2017,07,11,10,56,16.70
2017,07,11,10,57,16.70
2017,07,11,10,58,16.70
2017,07,11,10,59,16.80
2017,07,11,11,00,16.80
2017,07,11,11,01,16.80
2017,07,11,11,02,16.90
2017,07,11,11,03,16.90
2017,07,11,11,04,16.90
2017,07,11,11,05,16.90
2017,07,11,11,06,16.90
2017,07,11,11,07,17.00
2017,07,11,11,08,17.00
2017,07,11,11,09,17.10
2017,07,11,11,10,17.20
2017,07,11,11,11,17.30
2017,07,11,11,12,17.30
2017,07,11,11,13,17.40
2017,07,11,11,14,17.40
2017,07,11,11,15,17.50
2017,07,11,11,16,17.50
2017,07,11,11,17,17.60
2017,07,11,11,18,17.60
2017,07,11,11,19,17.60
2017,07,11,11,20,17.60
2017,07,11,11,21,17.50
2017,07,11,11,22,17.40
2017,07,11,11,23,17.40
2017,07,11,11,24,17.40
2017,07,11,11,25,17.30
2017,07,11,11,26,17.30
2017,07,11,11,27,17.40
2017,07,11,11,28,17.40
2017,07,11,11,29,17.40
2017,07,11,11,30,17.40
2017,07,11,11,31,17.40
2017,07,11,11,32,17.40
2017,07,11,11,33,17.40
2017,07,11,11,34,17.40
2017,07,11,11,35,17.40
2017,07,11,11,36,17.40
2017,07,11,11,37,17.40
2017,07,11,11,38,17.40
2017,07,11,11,39,17.30
2017,07,11,11,40,17.30
2017,07,11,11,41,17.30
2017,07,11,11,42,17.40
2017,07,11,11,43,17.40
2017,07,11,11,44,17.50
2017,07,11,11,45,17.50
2017,07,11,11,46,17.50
2017,07,11,11,47,17.40
2017,07,11,11,48,17.40
2017,07,11,11,49,17.40
2017,07,11,11,50,17.50
2017,07,11,11,51,17.60
2017,07,11,11,52,17.70
2017,07,11,11,53,17.80
2017,07,11,11,54,17.90
2017,07,11,11,55,18.00
2017,07,11,11,56,18.00
2017,07,11,11,57,18.00
2017,07,11,11,58,17.90
2017,07,11,11,59,17.90
2017,07,11,12,00,17.90
2017,07,11,12,01,17.90
2017,07,11,12,02,17.90
2017,07,11,12,03,17.80
2017,07,11,12,04,17.70
2017,07,11,12,05,17.70
2017,07,11,12,06,17.70
2017,07,11,12,07,17.70
2017,07,11,12,08,17.70
2017,07,11,12,09,17.70
2017,07,11,12,10,17.70
2017,07,11,12,11,17.70
2017,07,11,12,12,17.80
2017,07,11,12,13,17.80
2017,07,11,12,14,17.90
2017,07,11,12,15,17.90
2017,07,11,12,16,18.00
2017,07,11,12,17,18.00
2017,07,11,12,18,18.00
2017,07,11,12,19,18.00
2017,07,11,12,20,18.00
2017,07,11,12,21,18.00
2017,07,11,12,22,18.00
2017,07,11,12,23,18.00
2017,07,11,12,24,18.00
2017,07,11,12,25,18.00
2017,07,11,12,26,18.00
2017,07,11,12,27,18.10
2017,07,11,12,28,18.20
2017,07,11,12,29,18.30
2017,07,11,12,30,18.30
2017,07,11,12,31,18.30
2017,07,11,12,32,18.30
2017,07,11,12,33,18.20
2017,07,11,12,34,18.20
2017,07,11,12,35,18.10
2017,07,11,12,36,18.00
2017,07,11,12,37,17.90
2017,07,11,12,38,17.80
2017,07,11,12,39,17.80
2017,07,11,12,40,17.80
2017,07,11,12,41,17.70
2017,07,11,12,42,17.70
2017,07,11,12,43,17.70
2017,07,11,12,44,17.80
2017,07,11,12,45,17.80
2017,07,11,12,46,17.80
2017,07,11,12,47,17.90
2017,07,11,12,48,18.10
2017,07,11,12,49,18.20
2017,07,11,12,50,18.30
2017,07,11,12,51,18.40
2017,07,11,12,52,18.50
2017,07,11,12,53,18.50
2017,07,11,12,54,18.50
2017,07,11,12,55,18.40
2017,07,11,12,56,18.30
2017,07,11,12,57,18.30
2017,07,11,12,58,18.20
2017,07,11,12,59,18.20
2017,07,11,13,00,18.10
2017,07,11,13,01,18.00
2017,07,11,13,02,18.00
2017,07,11,13,03,17.90
2017,07,11,13,04,17.90
2017,07,11,13,05,17.80
2017,07,11,13,06,17.80
2017,07,11,13,07,17.80
2017,07,11,13,08,17.80
2017,07,11,13,09,17.80
2017,07,11,13,10,17.80
2017,07,11,13,11,17.80
2017,07,11,13,12,17.80
2017,07,11,13,13,17.90
2017,07,11,13,14,17.90
2017,07,11,13,15,17.90
2017,07,11,13,16,17.90
2017,07,11,13,17,17.90
2017,07,11,13,18,18.00
2017,07,11,13,19,18.00
2017,07,11,13,20,18.10
2017,07,11,13,21,18.20
2017,07,11,13,22,18.30
2017,07,11,13,23,18.30
2017,07,11,13,24,18.30
2017,07,11,13,25,18.40
2017,07,11,13,26,18.40
2017,07,11,13,27,18.40
2017,07,11,13,28,18.40
2017,07,11,13,29,18.40
2017,07,11,13,30,18.30
2017,07,11,13,31,18.30
2017,07,11,13,32,18.30
2017,07,11,13,33,18.30
2017,07,11,13,34,18.30
2017,07,11,13,35,18.30
2017,07,11,13,36,18.30
2017,07,11,13,37,18.40
2017,07,11,13,38,18.40
2017,07,11,13,39,18.40
2017,07,11,13,40,18.40
2017,07,11,13,41,18.40
2017,07,11,13,42,18.40
2017,07,11,13,43,18.40
2017,07,11,13,44,18.40
2017,07,11,13,45,18.40
2017,07,11,13,46,18.40
2017,07,11,13,47,18.40
2017,07,11,13,48,18.40
2017,07,11,13,49,18.40
2017,07,11,13,50,18.40
2017,07,11,13,51,18.40
2017,07,11,13,52,18.40
2017,07,11,13,53,18.30
2017,07,11,13,54,18.40
2017,07,11,13,55,18.40
2017,07,11,13,56,18.40
2017,07,11,13,57,18.40
2017,07,11,13,58,18.50
2017,07,11,13,59,18.50
2017,07,11,14,00,18.60
2017,07,11,14,01,18.60
2017,07,11,14,02,18.70
2017,07,11,14,03,18.70
2017,07,11,14,04,18.60
2017,07,11,14,05,18.60
2017,07,11,14,06,18.60
2017,07,11,14,07,18.60
2017,07,11,14,08,18.60
2017,07,11,14,09,18.70
2017,07,11,14,10,18.80
2017,07,11,14,11,18.90
2017,07,11,14,12,19.00
2017,07,11,14,13,19.10
2017,07,11,14,14,19.20
2017,07,11,14,15,19.30
2017,07,11,14,16,19.40
2017,07,11,14,17,19.50
2017,07,11,14,18,19.70
2017,07,11,14,19,19.80
2017,07,11,14,20,20.00
2017,07,11,14,21,20.10
2017,07,11,14,22,20.20
2017,07,11,14,23,20.30
2017,07,11,14,24,20.40
2017,07,11,14,25,20.60
2017,07,11,14,26,20.70
2017,07,11,14,27,20.80
2017,07,11,14,28,20.80
2017,07,11,14,29,20.80
2017,07,11,14,30,20.80
2017,07,11,14,31,20.90
2017,07,11,14,32,20.90
2017,07,11,14,33,20.90
2017,07,11,14,34,20.90
2017,07,11,14,35,20.90
2017,07,11,14,36,20.90
2017,07,11,14,37,20.90
2017,07,11,14,38,21.00
2017,07,11,14,39,21.00
2017,07,11,14,40,21.10
2017,07,11,14,41,21.00
2017,07,11,14,42,21.00
2017,07,11,14,43,21.00
2017,07,11,14,44,21.00
2017,07,11,14,45,20.90
2017,07,11,14,46,21.00
2017,07,11,14,47,21.00
2017,07,11,14,48,21.00
2017,07,11,14,49,21.10
2017,07,11,14,50,21.10
2017,07,11,14,51,21.10
2017,07,11,14,52,21.00
2017,07,11,14,53,21.00
2017,07,11,14,54,21.00
2017,07,11,14,55,20.90
2017,07,11,14,56,20.90
2017,07,11,14,57,20.90
2017,07,11,14,58,20.90
2017,07,11,14,59,21.00
2017,07,11,15,00,21.00
2017,07,11,15,01,21.00
2017,07,11,15,02,21.10
2017,07,11,15,03,21.10
2017,07,11,15,04,21.00
2017,07,11,15,05,21.00
2017,07,11,15,06,21.00
2017,07,11,15,07,21.00
2017,07,11,15,08,21.10
2017,07,11,15,09,21.10
2017,07,11,15,10,21.10
2017,07,11,15,11,21.00
2017,07,11,15,12,21.00
2017,07,11,15,13,21.00
2017,07,11,15,14,21.10
2017,07,11,15,15,21.10
2017,07,11,15,16,21.10
2017,07,11,15,17,21.10
2017,07,11,15,18,21.10
2017,07,11,15,19,21.10
2017,07,11,15,20,21.10
2017,07,11,15,21,21.20
2017,07,11,15,22,21.20
2017,07,11,15,23,21.20
2017,07,11,15,24,21.20
2017,07,11,15,25,21.20
2017,07,11,15,26,21.20
2017,07,11,15,27,21.20
2017,07,11,15,28,21.20
2017,07,11,15,29,21.30
2017,07,11,15,30,21.30
2017,07,11,15,31,21.30
2017,07,11,15,32,21.40
2017,07,11,15,33,21.30
2017,07,11,15,34,21.30
2017,07,11,15,35,21.30
2017,07,11,15,36,21.30
2017,07,11,15,37,21.20
2017,07,11,15,38,21.20
2017,07,11,15,39,21.20
2017,07,11,15,40,21.20
2017,07,11,15,41,21.30
2017,07,11,15,42,21.30
2017,07,11,15,43,21.30
2017,07,11,15,44,21.40
2017,07,11,15,45,21.40
2017,07,11,15,46,21.40
2017,07,11,15,47,21.40
2017,07,11,15,48,21.40
2017,07,11,15,49,21.50
2017,07,11,15,50,21.50
2017,07,11,15,51,21.50
2017,07,11,15,52,21.50
2017,07,11,15,53,21.50
2017,07,11,15,54,21.50
2017,07,11,15,55,21.50
2017,07,11,15,56,21.50
2017,07,11,15,57,21.50
2017,07,11,15,58,21.50
2017,07,11,15,59,21.60
2017,07,11,16,00,21.60
2017,07,11,16,01,21.50
2017,07,11,16,02,21.50
2017,07,11,16,03,21.40
2017,07,11,16,04,21.50
2017,07,11,16,05,21.40
2017,07,11,16,06,21.40
2017,07,11,16,07,21.50
2017,07,11,16,08,21.50
2017,07,11,16,09,21.50
2017,07,11,16,10,21.60
2017,07,11,16,11,21.50
2017,07,11,16,12,21.50
2017,07,11,16,13,21.50
2017,07,11,16,14,21.50
2017,07,11,16,15,21.50
2017,07,11,16,16,21.60
2017,07,11,16,17,21.50
2017,07,11,16,18,21.50
2017,07,11,16,19,21.50
2017,07,11,16,20,21.50
2017,07,11,16,21,21.50
2017,07,11,16,22,21.60
2017,07,11,16,23,21.60
2017,07,11,16,24,21.60
2017,07,11,16,25,21.60
2017,07,11,16,26,21.70
2017,07,11,16,27,21.70
2017,07,11,16,28,21.70
2017,07,11,16,29,21.80
2017,07,11,16,30,21.80
2017,07,11,16,31,21.90
2017,07,11,16,32,21.90
2017,07,11,16,33,21.80
2017,07,11,16,34,21.80
2017,07,11,16,35,21.80
2017,07,11,16,36,21.80
2017,07,11,16,37,21.80
2017,07,11,16,38,21.80
2017,07,11,16,39,21.80
2017,07,11,16,40,21.80
2017,07,11,16,41,21.80
2017,07,11,16,42,21.80
2017,07,11,16,43,21.70
2017,07,11,16,44,21.70
2017,07,11,16,45,21.70
2017,07,11,16,46,21.70
2017,07,11,16,47,21.60
2017,07,11,16,48,21.50
2017,07,11,16,49,21.50
2017,07,11,16,50,21.40
2017,07,11,16,51,21.40
2017,07,11,16,52,21.40
2017,07,11,16,53,21.40
2017,07,11,16,54,21.40
2017,07,11,16,55,21.40
2017,07,11,16,56,21.40
2017,07,11,16,57,21.50
2017,07,11,16,58,21.50
2017,07,11,16,59,21.50
2017,07,11,17,00,21.50
2017,07,11,17,01,21.50
2017,07,11,17,02,21.50
2017,07,11,17,03,21.50
2017,07,11,17,04,21.50
2017,07,11,17,05,21.40
2017,07,11,17,06,21.40
2017,07,11,17,07,21.40
2017,07,11,17,08,21.40
2017,07,11,17,09,21.40
2017,07,11,17,10,21.50
2017,07,11,17,11,21.50
2017,07,11,17,12,21.60
2017,07,11,17,13,21.60
2017,07,11,17,14,21.60
2017,07,11,17,15,21.60
2017,07,11,17,16,21.60
2017,07,11,17,17,21.50
2017,07,11,17,18,21.50
2017,07,11,17,19,21.50
2017,07,11,17,20,21.60
2017,07,11,17,21,21.60
2017,07,11,17,22,21.60